Flag for Indonesia Weather past 2 weeks in Surabaya, East Java, Indonesia

Now
86 °F

Passing clouds.


Feels Like: 91 °F
Forecast: 73 / 90 °F
Wind: 12 mph from East

Location: Juanda International Airport

Current Time: Jul 31, 2015 at 12:12:35 PM

Latest Report: Jul 31, 2015 at 11:30 AM


Visibility: N/A

Pressure: 29.89 "Hg

Humidity: 59%

Dew point: 70 °F

Location of SurabayaLocation

Historic Weather in Surabaya — Graph

°F

Surabaya temperature yesterday

Maximum temperature yesterday: 88 °F (at 11:30 AM)
Minimum temperature yesterday: 77 °F (at 3:30 AM)
Average temperature yesterday: 82 °F

Past Weeks' High & Low Weather Summary

 TemperatureHumidityPressure
High88 °F (Jul 24, 1:00 PM)100% (Jul 25, 4:00 PM)29.98 "Hg (Jul 25, 4:00 PM)
Low68 °F (Jul 25, 4:00 PM)46% (Jul 28, 11:00 AM)29.77 "Hg (Jul 19, 3:00 PM)
Average81 °F70%29.90 "Hg
* Reported Jul 16 10:00 AM — Jul 31 10:30 AM, Surabaya, Weather by CustomWeather, © 2015

Note: Actual official high and low records may vary slightly from our data, if they occured in-between our weather recording intervals... More about our weather records

Advertising

Surabaya weather history for previous 24 hours

 ConditionsComfort  
Time TempWeatherWind HumidityBarometerVisibility
10:30 AM
Fri, Jul 31
84 °FPassing clouds.9 mph62%29.89 "HgN/A
10:00 AM84 °FPassing clouds.10 mph58%29.92 "HgN/A
9:30 AM84 °FPassing clouds.9 mph66%29.92 "Hg5 mi
9:00 AM82 °FPassing clouds.7 mph66%29.92 "Hg5 mi
8:30 AM82 °FHaze.5 mph70%29.92 "Hg3 mi
8:00 AM81 °FHaze.2 mph74%29.92 "Hg3 mi
7:30 AM79 °FHaze.1 mph79%29.92 "Hg2 mi
7:00 AM75 °FHaze.2 mph89%29.89 "Hg2 mi
2:30 AM75 °FPassing clouds.1 mph83%29.86 "Hg4 mi
2:00 AM77 °FPassing clouds.5 mph79%29.86 "Hg4 mi
1:30 AM77 °FPassing clouds.5 mph79%29.89 "Hg4 mi
1:00 AM77 °FPassing clouds.6 mph79%29.89 "Hg4 mi
12:30 AM79 °FPassing clouds.5 mph79%29.89 "Hg4 mi
12:00 AM79 °FPassing clouds.5 mph79%29.89 "Hg4 mi
11:30 PM
Thu, Jul 30
79 °FPassing clouds.7 mph79%29.92 "Hg4 mi
11:00 PM81 °FPassing clouds.10 mph74%29.92 "Hg5 mi
10:30 PM81 °FPassing clouds.10 mph70%29.92 "Hg5 mi
9:30 PM79 °FPassing clouds.12 mph79%29.92 "Hg5 mi
9:00 PM81 °FPassing clouds.10 mph74%29.92 "Hg5 mi
8:30 PM81 °FPassing clouds.12 mph74%29.92 "Hg6 mi
8:00 PM81 °FPassing clouds.12 mph74%29.92 "Hg6 mi
7:30 PM81 °FPassing clouds.12 mph74%29.89 "Hg6 mi
7:00 PM81 °FPassing clouds.12 mph74%29.86 "Hg6 mi
6:30 PM81 °FPassing clouds.13 mph74%29.86 "Hg6 mi
6:00 PM81 °FPassing clouds.13 mph74%29.86 "Hg6 mi
5:30 PM82 °FPassing clouds.14 mph70%29.86 "HgN/A
5:00 PM82 °FPassing clouds.15 mph70%29.86 "HgN/A
4:30 PM84 °FPassing clouds.16 mph66%29.83 "HgN/A
4:00 PM84 °FPassing clouds.15 mph66%29.83 "HgN/A
3:30 PM84 °FPassing clouds.14 mph66%29.83 "HgN/A
3:00 PM86 °FPassing clouds.14 mph59%29.83 "HgN/A
2:30 PM86 °FPassing clouds.14 mph62%29.83 "HgN/A
2:00 PM86 °FPassing clouds.15 mph62%29.83 "HgN/A
1:30 PM86 °FPassing clouds.15 mph62%29.86 "HgN/A
1:00 PM86 °FPassing clouds.15 mph62%29.86 "HgN/A
12:00 PM86 °FPassing clouds.16 mph62%29.89 "HgN/A
Weather by CustomWeather, © 2015

See weather overviewHow to use our weather pages